QPF
0.01 0.01 0.01 0.00 0.01 0.01 0.01 0.01 0.01 0.01 0.00 0.00 0.00 0.00 0.00 0.00 0.00 0.00 0.00 0.00 0.00 0.00 0.00 0.00 0.00 0.00 0.00 0.00 0.00 0.00 0.00 0.00 0.00 0.00 0.00 0.00 0.00 0.00 0.00 0.00 0.00 0.00 0.00 0.00 0.00 0.00 0.00
0.01 0.01 0.01 0.01 0.01 0.01 0.01 0.01 0.01 0.01 0.01 0.00 0.00 0.00 0.00 0.00 0.00 0.00 0.00 0.00 0.00 0.00 0.00 0.00 0.00 0.00 0.00 0.00 0.00 0.00 0.00 0.00 0.00 0.00 0.00 0.00 0.00 0.00 0.00 0.00 0.00 0.00 0.00 0.00 0.00 0.00 0.00
0.01 0.01 0.01 0.01 0.01 0.01 0.01 0.01 0.01 0.01 0.01 0.00 0.00 0.00 0.00 0.00 0.00 0.00 0.00 0.00 0.00 0.00 0.00 0.00 0.00 0.00 0.00 0.00 0.00 0.00 0.00 0.00 0.00 0.00 0.00 0.00 0.00 0.00 0.00 0.00 0.00 0.00 0.00 0.00 0.00 0.00 0.00
0.00 0.00 0.01 0.01 0.00 0.01 0.01 0.00 0.01 0.01 0.00 0.00 0.00 0.00 0.00 0.00 0.00 0.00 0.00 0.00 0.00 0.00 0.00 0.00 0.00 0.00 0.00 0.00 0.00 0.00 0.00 0.00 0.00 0.00 0.00 0.00 0.00 0.00 0.00 0.00 0.00 0.00 0.00 0.00 0.00 0.00 0.00
0.00 0.00 0.00 0.00 0.00 0.01 0.01 0.01 0.01 0.00 0.00 0.00 0.00 0.00 0.00 0.00 0.00 0.00 0.00 0.00 0.00 0.00 0.00 0.00 0.00 0.00 0.00 0.00 0.00 0.00 0.00 0.00 0.00 0.00 0.00 0.00 0.00 0.00 0.00 0.00 0.00 0.00 0.00 0.00 0.00 0.00 0.00
0.00 0.00 0.00 0.00 0.00 0.00 0.01 0.00 0.01 0.01 0.00 0.00 0.00 0.00 0.00 0.00 0.00 0.00 0.00 0.00 0.00 0.00 0.00 0.00 0.00 0.00 0.00 0.00 0.00 0.00 0.00 0.00 0.00 0.00 0.00 0.00 0.00 0.00 0.00 0.00 0.00 0.00 0.00 0.00 0.00 0.00 0.00
0.00 0.00 0.00 0.00 0.00 0.00 0.00 0.01 0.01 0.01 0.00 0.00 0.00 0.00 0.00 0.00 0.00 0.00 0.00 0.00 0.00 0.00 0.00 0.00 0.00 0.00 0.00 0.00 0.00 0.00 0.00 0.00 0.00 0.00 0.00 0.00 0.00 0.00 0.00 0.00 0.00 0.00 0.00 0.00 0.00 0.00 0.00
0.00 0.00 0.00 0.00 0.00 0.00 0.00 0.00 0.01 0.01 0.00 0.00 0.00 0.00 0.00 0.00 0.00 0.00 0.00 0.00 0.00 0.00 0.00 0.00 0.00 0.00 0.00 0.00 0.00 0.00 0.00 0.00 0.00 0.00 0.00 0.00 0.00 0.00 0.00 0.00 0.00 0.00 0.00 0.00 0.00 0.00 0.00
0.00 0.00 0.00 0.00 0.00 0.00 0.00 0.00 0.00 0.00 0.00 0.00 0.00 0.00 0.00 0.00 0.00 0.00 0.00 0.00 0.00 0.00 0.00 0.00 0.00 0.00 0.00 0.00 0.00 0.00 0.00 0.00 0.00 0.00 0.00 0.00 0.00 0.00 0.00 0.00 0.00 0.00 0.00 0.00 0.00 0.00 0.00
0.00 0.00 0.00 0.00 0.00 0.00 0.00 0.00 0.00 0.00 0.00 0.00 0.00 0.00 0.00 0.00 0.00 0.00 0.00 0.00 0.00 0.00 0.00 0.00 0.00 0.00 0.00 0.00 0.00 0.00 0.00 0.00 0.00 0.00 0.00 0.00 0.00 0.00 0.00 0.00 0.00 0.00 0.00 0.00 0.00 0.00 0.00
0.00 0.00 0.00 0.00 0.00 0.00 0.00 0.00 0.00 0.00 0.00 0.00 0.00 0.00 0.00 0.00 0.00 0.00 0.00 0.00 0.00 0.00 0.00 0.00 0.00 0.00 0.00 0.00 0.00 0.00 0.00 0.00 0.00 0.00 0.00 0.00 0.00 0.00 0.00 0.00 0.00 0.00 0.00 0.00 0.00 0.00 0.00
0.00 0.00 0.00 0.00 0.00 0.00 0.00 0.00 0.00 0.00 0.00 0.00 0.00 0.00 0.00 0.00 0.00 0.00 0.00 0.00 0.00 0.00 0.00 0.00 0.00 0.00 0.00 0.00 0.00 0.00 0.00 0.00 0.00 0.00 0.00 0.00 0.00 0.00 0.00 0.00 0.00 0.00 0.00 0.00 0.00 0.00 0.00
0.00 0.00 0.00 0.00 0.00 0.00 0.00 0.00 0.00 0.00 0.00 0.00 0.00 0.00 0.00 0.00 0.00 0.00 0.00 0.00 0.00 0.00 0.00 0.00 0.00 0.00 0.00 0.00 0.00 0.00 0.00 0.00 0.00 0.00 0.00 0.00 0.00 0.00 0.00 0.00 0.00 0.00 0.00 0.00 0.00 0.00 0.00
0.00 0.00 0.00 0.00 0.00 0.00 0.00 0.00 0.00 0.00 0.00 0.00 0.00 0.00 0.00 0.00 0.00 0.00 0.00 0.00 0.00 0.00 0.00 0.00 0.00 0.00 0.00 0.00 0.00 0.00 0.00 0.00 0.00 0.00 0.00 0.00 0.00 0.00 0.00 0.00 0.00 0.00 0.00 0.00 0.00 0.00 0.00
0.00 0.00 0.00 0.00 0.00 0.00 0.00 0.00 0.00 0.00 0.00 0.00 0.00 0.00 0.00 0.00 0.00 0.00 0.00 0.00 0.00 0.00 0.00 0.00 0.00 0.00 0.00 0.00 0.00 0.00 0.00 0.00 0.00 0.00 0.00 0.00 0.00 0.00 0.00 0.00 0.00 0.00 0.00 0.00 0.00 0.00 0.00
0.00 0.00 0.00 0.00 0.00 0.00 0.00 0.00 0.00 0.00 0.00 0.00 0.00 0.00 0.00 0.00 0.00 0.00 0.00 0.00 0.00 0.00 0.00 0.00 0.00 0.00 0.00 0.00 0.00 0.00 0.00 0.00 0.00 0.00 0.00 0.00 0.00 0.00 0.00 0.00 0.00 0.00 0.00 0.00 0.00 0.00 0.00
0.00 0.00 0.00 0.00 0.00 0.00 0.00 0.00 0.00 0.00 0.00 0.00 0.00 0.00 0.00 0.00 0.00 0.00 0.00 0.00 0.00 0.00 0.00 0.00 0.00 0.00 0.00 0.00 0.00 0.00 0.00 0.00 0.00 0.00 0.00 0.00 0.00 0.00 0.00 0.00 0.00 0.00 0.00 0.00 0.00 0.00 0.00
0.00 0.00 0.00 0.00 0.00 0.00 0.00 0.00 0.00 0.00 0.00 0.00 0.00 0.00 0.00 0.00 0.00 0.00 0.00 0.00 0.00 0.00 0.00 0.00 0.00 0.00 0.00 0.00 0.00 0.00 0.00 0.00 0.00 0.00 0.00 0.00 0.00 0.00 0.00 0.00 0.00 0.00 0.00 0.00 0.00 0.00 0.00
0.00 0.00 0.00 0.00 0.00 0.00 0.00 0.00 0.00 0.00 0.00 0.00 0.00 0.00 0.00 0.00 0.00 0.00 0.00 0.00 0.00 0.00 0.00 0.00 0.00 0.00 0.00 0.00 0.00 0.00 0.00 0.00 0.00 0.00 0.00 0.00 0.00 0.00 0.00 0.00 0.00 0.00 0.00 0.00 0.00 0.00 0.00
0.00 0.00 0.00 0.00 0.00 0.00 0.00 0.00 0.00 0.00 0.00 0.00 0.00 0.00 0.00 0.00 0.00 0.00 0.00 0.00 0.00 0.00 0.00 0.00 0.00 0.00 0.00 0.00 0.00 0.00 0.00 0.00 0.00 0.00 0.00 0.00 0.00 0.00 0.00 0.00 0.00 0.00 0.00 0.00 0.00 0.00 0.00
0.00 0.00 0.00 0.00 0.00 0.00 0.00 0.00 0.00 0.00 0.00 0.00 0.00 0.00 0.00 0.00 0.00 0.00 0.00 0.00 0.00 0.00 0.00 0.00 0.00 0.00 0.00 0.00 0.00 0.00 0.00 0.00 0.00 0.00 0.00 0.00 0.00 0.00 0.00 0.00 0.00 0.00 0.00 0.00 0.00 0.00 0.00
0.00 0.00 0.00 0.00 0.00 0.00 0.00 0.00 0.00 0.00 0.00 0.00 0.00 0.00 0.00 0.00 0.00 0.00 0.00 0.00 0.00 0.00 0.00 0.00 0.00 0.00 0.00 0.00 0.00 0.00 0.00 0.00 0.00 0.00 0.00 0.00 0.00 0.00 0.00 0.00 0.00 0.00 0.00 0.00 0.00 0.00 0.00
0.00 0.00 0.00 0.00 0.00 0.00 0.00 0.00 0.00 0.00 0.00 0.01 0.00 0.00 0.00 0.00 0.00 0.00 0.00 0.00 0.00 0.00 0.00 0.00 0.00 0.00 0.00 0.00 0.00 0.00 0.00 0.00 0.00 0.00 0.00 0.00 0.00 0.00 0.00 0.00 0.00 0.00 0.00 0.00 0.00 0.00 0.00
0.00 0.00 0.00 0.00 0.00 0.00 0.00 0.00 0.00 0.00 0.00 0.00 0.00 0.00 0.00 0.00 0.00 0.00 0.00 0.00 0.00 0.00 0.00 0.00 0.00 0.00 0.00 0.00 0.00 0.00 0.00 0.00 0.00 0.00 0.00 0.00 0.00 0.00 0.00 0.00 0.00 0.00 0.00 0.00 0.00 0.00 0.00
0.01 0.01 0.01 0.01 0.01 0.00 0.00 0.00 0.00 0.00 0.00 0.00 0.00 0.00 0.00 0.00 0.00 0.00 0.00 0.00 0.00 0.00 0.00 0.00 0.00 0.00 0.00 0.00 0.00 0.00 0.00 0.00 0.00 0.00 0.00 0.00 0.00 0.00 0.00 0.00 0.00 0.00 0.00 0.00 0.00 0.00 0.00
0.02 0.01 0.01 0.01 0.01 0.01 0.01 0.01 0.00 0.00 0.01 0.00 0.00 0.01 0.00 0.00 0.00 0.00 0.00 0.00 0.00 0.00 0.00 0.00 0.00 0.00 0.00 0.00 0.00 0.00 0.00 0.00 0.00 0.00 0.00 0.00 0.00 0.00 0.00 0.00 0.00 0.00 0.00 0.00 0.00 0.00 0.00
0.01 0.01 0.01 0.01 0.01 0.01 0.01 0.01 0.01 0.01 0.01 0.01 0.00 0.00 0.00 0.00 0.00 0.00 0.00 0.00 0.00 0.00 0.00 0.00 0.00 0.00 0.00 0.00 0.00 0.00 0.00 0.00 0.00 0.00 0.00 0.00 0.00 0.00 0.00 0.00 0.00 0.00 0.00 0.00 0.00 0.00 0.00
0.01 0.01 0.01 0.01 0.01 0.01 0.01 0.01 0.01 0.02 0.02 0.03 0.01 0.00 0.00 0.00 0.00 0.00 0.00 0.00 0.00 0.00 0.00 0.00 0.00 0.00 0.00 0.00 0.00 0.00 0.00 0.00 0.00 0.00 0.00 0.00 0.00 0.00 0.00 0.00 0.00 0.00 0.00 0.00 0.00 0.00 0.00
0.00 0.00 0.00 0.00 0.01 0.01 0.01 0.01 0.01 0.01 0.02 0.03 0.01 0.00 0.00 0.00 0.00 0.00 0.00 0.00 0.00 0.00 0.00 0.00 0.00 0.00 0.00 0.00 0.00 0.00 0.00 0.00 0.00 0.00 0.00 0.00 0.00 0.00 0.00 0.00 0.00 0.00 0.00 0.00 0.00 0.00 0.00
MSLP
1022.43 1022.23 1021.94 1021.73 1021.54 1021.36 1021.14 1020.94 1020.65 1020.34 1020.05 1019.87 1019.75 1019.73 1019.73 1019.61 1019.45 1019.32 1019.34 1019.44 1019.42 1019.48 1019.59 1019.71 1019.85 1020.07 1020.33 1020.68 1020.75 1020.41 1020.32 1020.55 1020.68 1020.83 1021.16 1021.51 1021.80 1022.30 1022.99 1023.16 1023.81 1023.93 1023.70 1023.13 1022.62 1022.43 1022.08
1022.67 1022.39 1022.23 1022.00 1021.75 1021.53 1021.27 1021.00 1020.73 1020.44 1020.17 1020.00 1019.86 1019.84 1019.79 1019.59 1019.37 1019.27 1019.26 1019.30 1019.31 1019.41 1019.59 1019.72 1019.85 1020.12 1020.42 1020.87 1020.64 1020.49 1020.59 1020.63 1020.77 1021.03 1021.29 1021.45 1021.82 1022.14 1023.01 1023.42 1023.95 1023.85 1023.68 1023.07 1022.47 1022.00 1021.60
1022.91 1022.68 1022.43 1022.13 1021.89 1021.63 1021.33 1021.10 1020.85 1020.60 1020.36 1020.12 1020.05 1019.92 1019.76 1019.50 1019.31 1019.31 1019.20 1019.18 1019.21 1019.38 1019.56 1019.67 1019.93 1020.26 1020.51 1020.90 1020.60 1020.58 1020.62 1020.75 1020.77 1020.89 1021.14 1021.29 1021.66 1022.30 1023.07 1023.55 1023.54 1023.82 1023.87 1023.24 1022.11 1021.70 1021.35
1023.13 1022.91 1022.68 1022.36 1022.02 1021.72 1021.49 1021.29 1021.03 1020.76 1020.47 1020.32 1020.18 1019.93 1019.66 1019.45 1019.39 1019.34 1019.20 1019.25 1019.34 1019.49 1019.61 1019.74 1019.96 1020.28 1020.60 1020.60 1020.65 1020.67 1020.68 1020.79 1020.72 1020.74 1020.92 1021.11 1021.64 1022.40 1023.11 1023.41 1023.79 1024.34 1024.45 1024.04 1022.41 1021.69 1021.15
1023.27 1023.05 1022.78 1022.46 1022.27 1021.94 1021.68 1021.43 1021.12 1020.87 1020.67 1020.47 1020.28 1019.91 1019.59 1019.49 1019.52 1019.43 1019.39 1019.48 1019.62 1019.66 1019.73 1019.93 1020.30 1020.50 1020.80 1020.49 1020.61 1020.72 1020.82 1020.95 1020.93 1020.93 1020.97 1021.22 1021.83 1022.95 1023.68 1024.42 1025.03 1025.37 1025.44 1024.39 1022.78 1021.53 1021.33
1023.37 1023.13 1022.87 1022.61 1022.41 1022.13 1021.78 1021.50 1021.24 1020.92 1020.69 1020.51 1020.32 1020.01 1019.70 1019.55 1019.58 1019.49 1019.56 1019.66 1019.77 1019.95 1020.15 1020.08 1020.39 1020.98 1020.96 1020.67 1020.63 1020.71 1020.69 1020.88 1021.21 1021.33 1021.66 1022.27 1023.27 1023.99 1024.90 1025.50 1026.14 1025.82 1025.39 1024.51 1023.39 1021.95 1021.31
1023.39 1023.11 1022.88 1022.66 1022.46 1022.22 1021.86 1021.47 1021.31 1021.04 1020.77 1020.50 1020.36 1020.01 1019.71 1019.62 1019.56 1019.54 1019.84 1020.01 1020.82 1020.95 1020.58 1020.26 1020.32 1020.37 1020.48 1020.50 1020.62 1020.85 1020.91 1021.28 1021.70 1022.30 1023.25 1023.79 1024.82 1025.00 1025.08 1025.21 1025.28 1025.51 1025.05 1024.06 1023.09 1022.01 1021.32
1023.51 1023.20 1022.91 1022.64 1022.43 1022.23 1021.97 1021.65 1021.34 1021.04 1020.73 1020.52 1020.19 1019.99 1019.79 1019.65 1019.60 1019.70 1020.11 1020.51 1020.35 1020.46 1020.69 1020.50 1020.35 1020.34 1020.33 1020.50 1020.79 1020.86 1021.09 1021.85 1022.37 1023.18 1023.89 1024.70 1024.82 1024.42 1024.53 1024.75 1025.15 1025.30 1024.98 1023.62 1022.36 1021.86 1021.90
1023.45 1023.11 1022.90 1022.68 1022.43 1022.25 1021.96 1021.74 1021.47 1021.09 1020.72 1020.51 1020.13 1019.85 1019.68 1019.59 1019.72 1020.07 1020.52 1020.55 1020.45 1020.49 1020.78 1020.78 1020.49 1020.32 1020.37 1020.75 1020.83 1020.99 1021.37 1022.07 1022.75 1023.46 1024.28 1024.88 1024.10 1023.99 1024.34 1024.62 1025.11 1025.13 1025.16 1024.25 1023.35 1021.78 1022.20
1023.37 1023.07 1022.87 1022.58 1022.39 1022.26 1021.98 1021.72 1021.45 1021.06 1020.75 1020.43 1019.92 1019.57 1019.44 1019.36 1020.16 1020.53 1020.69 1020.53 1020.59 1020.68 1020.93 1020.94 1020.60 1020.17 1020.42 1020.61 1020.89 1020.81 1021.26 1022.21 1022.89 1023.56 1024.10 1024.29 1023.75 1023.83 1024.08 1024.54 1025.03 1025.17 1024.65 1024.74 1024.18 1024.11 1023.61
1023.27 1023.03 1022.82 1022.55 1022.33 1022.14 1021.96 1021.68 1021.40 1021.09 1020.65 1020.20 1019.72 1019.39 1019.36 1019.43 1020.05 1020.66 1020.59 1020.62 1020.83 1020.91 1020.99 1020.79 1020.49 1020.17 1020.42 1021.05 1021.05 1021.14 1021.53 1022.17 1023.09 1023.79 1024.62 1023.79 1023.70 1023.71 1023.89 1024.00 1024.85 1025.15 1025.23 1025.18 1025.20 1025.38 1025.27
1023.27 1022.98 1022.65 1022.42 1022.19 1022.00 1021.85 1021.59 1021.29 1020.93 1020.46 1020.00 1019.58 1019.33 1019.41 1019.83 1020.21 1020.41 1020.52 1020.72 1021.00 1021.15 1020.55 1020.24 1020.30 1020.53 1020.93 1021.06 1021.26 1021.46 1021.95 1022.47 1023.42 1024.14 1024.42 1024.10 1023.66 1023.74 1023.52 1023.89 1024.71 1025.63 1026.15 1026.27 1026.83 1027.13 1027.06
1023.27 1022.95 1022.62 1022.28 1022.08 1021.86 1021.71 1021.51 1021.16 1020.79 1020.34 1019.89 1019.47 1019.23 1019.40 1019.59 1020.08 1020.34 1020.69 1021.11 1021.29 1020.55 1020.02 1020.30 1020.51 1021.00 1021.62 1021.54 1021.70 1022.03 1022.86 1023.87 1024.75 1025.37 1025.39 1024.78 1023.97 1023.57 1023.63 1024.41 1025.26 1026.63 1028.40 1029.16 1029.14 1029.31 1027.87
1023.05 1022.80 1022.56 1022.27 1021.94 1021.64 1021.51 1021.31 1021.00 1020.68 1020.28 1019.83 1019.40 1019.29 1019.41 1019.60 1019.99 1020.28 1020.96 1021.29 1021.02 1019.58 1019.68 1020.26 1020.81 1021.44 1021.84 1021.73 1022.15 1022.69 1023.74 1025.00 1025.44 1026.26 1027.38 1026.54 1024.68 1024.15 1024.45 1025.32 1026.68 1028.43 1029.98 1031.43 1031.90 1031.02 1028.97
1022.77 1022.53 1022.34 1022.12 1021.86 1021.56 1021.26 1021.11 1020.81 1020.51 1020.15 1019.65 1019.37 1019.74 1019.82 1020.05 1020.23 1020.54 1021.00 1021.11 1019.50 1019.30 1019.72 1020.44 1021.28 1021.70 1022.05 1022.30 1022.93 1023.39 1023.94 1024.79 1025.17 1026.00 1027.20 1027.70 1026.08 1024.44 1024.76 1025.65 1026.96 1029.16 1030.54 1030.97 1031.85 1031.44 1030.99
1022.35 1022.18 1022.00 1021.84 1021.60 1021.39 1021.13 1020.91 1020.72 1020.30 1019.85 1019.50 1019.89 1020.00 1019.87 1019.81 1020.22 1020.83 1021.02 1020.11 1019.37 1019.31 1020.00 1020.56 1021.32 1021.70 1022.29 1022.74 1023.49 1023.95 1023.88 1023.99 1024.76 1025.46 1026.21 1027.28 1026.82 1025.29 1025.43 1026.04 1027.58 1028.62 1030.08 1031.95 1032.91 1032.65 1031.65
1021.91 1021.75 1021.58 1021.41 1021.29 1021.11 1020.95 1020.70 1020.62 1020.31 1019.69 1019.38 1019.94 1020.28 1020.01 1019.93 1020.37 1020.96 1021.03 1020.09 1019.32 1019.28 1019.69 1020.57 1021.06 1021.73 1022.33 1022.93 1023.42 1023.85 1023.45 1023.50 1023.89 1025.19 1026.04 1027.16 1027.63 1026.37 1026.00 1026.51 1027.68 1029.46 1030.46 1031.98 1032.59 1032.74 1032.38
1021.44 1021.27 1021.08 1020.94 1020.84 1020.71 1020.60 1020.44 1020.37 1020.24 1019.81 1019.66 1020.16 1020.66 1019.97 1020.04 1020.94 1021.00 1020.65 1019.60 1019.25 1019.37 1019.86 1020.52 1021.01 1021.41 1022.16 1022.68 1023.25 1023.45 1022.83 1022.34 1022.79 1023.86 1025.53 1025.92 1026.74 1026.82 1026.14 1026.59 1027.40 1028.43 1029.40 1030.58 1032.02 1032.22 1031.48
1020.70 1020.54 1020.44 1020.34 1020.29 1020.25 1020.14 1020.00 1020.03 1020.08 1019.94 1020.19 1020.73 1020.36 1020.09 1020.03 1020.41 1020.44 1019.86 1019.56 1019.30 1019.44 1019.70 1020.35 1020.90 1021.12 1021.56 1022.36 1022.90 1022.19 1021.94 1021.38 1021.99 1022.86 1023.51 1024.77 1025.74 1026.53 1025.94 1027.06 1027.30 1028.05 1028.78 1029.43 1030.06 1030.39 1029.61
1019.94 1019.80 1019.64 1019.55 1019.50 1019.53 1019.57 1019.56 1019.57 1019.74 1019.79 1020.15 1020.79 1020.64 1020.30 1020.27 1019.67 1019.54 1019.77 1019.29 1019.12 1018.96 1019.22 1019.56 1019.92 1020.75 1021.54 1021.80 1021.71 1021.43 1021.32 1020.99 1021.32 1021.68 1022.24 1023.22 1023.89 1024.32 1024.16 1024.23 1025.53 1027.04 1027.25 1027.72 1028.10 1028.59 1027.18
1019.17 1018.95 1018.77 1018.67 1018.59 1018.58 1018.66 1018.82 1018.90 1019.15 1019.39 1019.85 1020.29 1019.70 1019.14 1019.53 1019.43 1019.32 1019.27 1018.84 1018.78 1018.84 1019.04 1019.16 1019.43 1019.46 1020.21 1020.96 1020.88 1020.55 1020.36 1020.60 1020.80 1020.98 1021.52 1022.60 1022.29 1022.92 1022.74 1023.17 1024.12 1024.57 1024.55 1025.50 1025.87 1024.72 1025.81
1018.10 1017.95 1017.81 1017.64 1017.48 1017.33 1017.46 1017.74 1017.98 1018.33 1018.63 1019.06 1019.14 1019.17 1019.23 1018.53 1018.38 1018.42 1018.32 1017.70 1017.33 1017.27 1017.90 1018.04 1018.03 1017.82 1018.92 1019.00 1018.02 1018.05 1018.91 1019.58 1019.53 1020.37 1020.79 1021.52 1021.01 1021.85 1022.01 1022.48 1023.02 1023.14 1022.27 1022.89 1023.16 1023.67 1023.73
1016.95 1016.74 1016.55 1016.48 1016.47 1016.44 1016.47 1016.66 1016.99 1017.38 1017.82 1017.70 1017.36 1017.50 1017.77 1016.89 1017.24 1017.40 1016.26 1015.55 1015.35 1015.94 1015.61 1015.21 1015.75 1017.01 1017.34 1016.19 1016.02 1016.29 1017.15 1017.92 1018.28 1019.09 1020.11 1020.71 1020.87 1021.74 1021.65 1022.86 1023.14 1022.31 1020.30 1020.97 1021.62 1022.37 1022.66
1015.83 1015.64 1015.43 1015.24 1015.12 1015.11 1015.10 1015.19 1015.42 1015.86 1016.37 1016.63 1016.38 1016.80 1017.17 1015.37 1015.27 1014.79 1014.36 1014.41 1014.38 1014.37 1014.12 1013.95 1014.91 1015.49 1014.97 1015.19 1016.23 1016.67 1016.92 1017.15 1017.83 1018.02 1018.44 1019.11 1020.09 1020.97 1021.33 1022.77 1022.21 1019.01 1019.89 1020.61 1021.04 1021.24 1022.20
1014.68 1014.46 1014.27 1014.11 1013.99 1013.83 1013.71 1013.72 1013.85 1014.06 1014.48 1014.86 1015.24 1015.79 1015.81 1014.19 1013.92 1013.63 1013.55 1013.49 1013.34 1013.33 1013.15 1013.14 1013.28 1013.17 1014.56 1015.65 1016.32 1016.58 1016.88 1017.10 1016.27 1016.42 1017.16 1017.68 1018.82 1019.55 1020.41 1021.05 1019.24 1019.24 1020.23 1021.17 1021.39 1020.75 1020.65
1013.84 1013.55 1013.25 1012.95 1012.76 1012.69 1012.63 1012.48 1012.43 1012.46 1012.71 1012.97 1013.43 1014.04 1014.46 1013.96 1011.93 1012.69 1012.65 1012.60 1012.22 1012.22 1012.30 1012.08 1012.82 1013.17 1014.18 1014.96 1015.52 1015.72 1015.86 1015.75 1016.34 1016.57 1016.74 1017.23 1017.65 1018.45 1019.36 1019.69 1019.27 1018.35 1019.77 1020.43 1021.24 1021.01 1019.86
1013.26 1012.88 1012.56 1012.25 1012.00 1011.79 1011.63 1011.44 1011.40 1011.43 1011.37 1011.52 1011.43 1012.38 1013.01 1012.78 1011.64 1012.25 1011.76 1011.42 1011.68 1011.57 1011.50 1012.12 1012.81 1013.66 1013.94 1014.16 1014.54 1014.64 1014.54 1014.85 1015.54 1016.07 1016.80 1017.18 1017.25 1016.59 1016.84 1017.61 1017.24 1017.60 1019.34 1020.87 1021.78 1020.59 1020.30
1012.82 1012.40 1012.09 1011.80 1011.45 1011.17 1010.89 1010.75 1010.60 1010.44 1010.44 1010.58 1009.79 1010.33 1011.03 1010.88 1010.03 1010.56 1010.22 1010.35 1010.40 1010.63 1010.76 1011.85 1012.93 1013.33 1013.65 1013.71 1013.61 1013.32 1013.25 1013.40 1014.13 1014.14 1014.83 1015.03 1015.74 1015.92 1016.62 1017.19 1017.06 1017.32 1020.02 1020.52 1019.47 1020.19 1020.74
1012.19 1011.85 1011.47 1011.14 1010.90 1010.63 1010.38 1010.16 1010.01 1009.73 1009.63 1009.68 1008.79 1009.02 1008.95 1009.14 1008.53 1008.31 1008.08 1007.77 1008.30 1008.48 1009.61 1010.47 1010.51 1011.03 1011.28 1012.02 1012.14 1012.16 1012.38 1012.80 1012.95 1013.65 1013.93 1014.06 1012.88 1013.81 1014.68 1014.41 1015.19 1016.31 1017.27 1018.04 1018.94 1019.74 1020.58
Thickness
5591 5593 5595 5597 5598 5598 5599 5600 5601 5604 5606 5607 5608 5609 5609 5612 5615 5617 5617 5617 5617 5616 5613 5610 5606 5602 5597 5588 5585 5584 5579 5573 5566 5558 5551 5540 5527 5513 5498 5488 5475 5456 5453 5447 5438 5429 5415
5588 5590 5590 5591 5592 5592 5593 5595 5597 5599 5601 5602 5604 5604 5606 5610 5613 5614 5615 5615 5615 5613 5609 5605 5601 5596 5591 5581 5581 5577 5571 5565 5559 5551 5543 5534 5521 5509 5493 5480 5462 5458 5449 5441 5433 5425 5410
5583 5584 5584 5585 5586 5587 5589 5590 5592 5593 5595 5597 5598 5601 5604 5608 5610 5612 5613 5613 5612 5609 5605 5601 5596 5591 5583 5575 5575 5570 5565 5560 5553 5546 5536 5528 5514 5500 5486 5470 5463 5451 5437 5432 5424 5420 5407
5578 5578 5579 5580 5582 5583 5583 5584 5585 5587 5590 5592 5595 5599 5603 5606 5608 5609 5610 5609 5606 5603 5599 5595 5590 5585 5574 5573 5569 5564 5558 5552 5545 5538 5529 5521 5507 5492 5477 5469 5453 5436 5422 5397 5420 5416 5408
5575 5574 5575 5576 5577 5577 5578 5579 5581 5584 5586 5589 5593 5597 5602 5604 5605 5605 5605 5603 5600 5596 5593 5588 5583 5577 5568 5567 5562 5556 5549 5542 5535 5529 5522 5514 5500 5480 5465 5432 5415 5412 5384 5395 5408 5416 5402
5572 5572 5572 5572 5573 5575 5577 5577 5578 5582 5585 5589 5593 5596 5600 5601 5601 5601 5599 5597 5594 5590 5585 5582 5577 5568 5563 5560 5555 5549 5543 5535 5527 5519 5510 5495 5469 5437 5423 5406 5383 5408 5391 5397 5392 5401 5399
5571 5571 5571 5572 5572 5573 5575 5577 5578 5581 5585 5589 5592 5594 5596 5597 5597 5596 5595 5589 5579 5575 5577 5577 5571 5567 5561 5556 5549 5541 5534 5526 5516 5502 5479 5472 5435 5415 5432 5426 5424 5407 5398 5397 5392 5393 5387
5572 5572 5573 5572 5572 5573 5574 5577 5579 5581 5585 5588 5591 5592 5592 5593 5593 5592 5588 5581 5580 5578 5566 5568 5564 5560 5555 5549 5540 5534 5527 5514 5502 5488 5473 5449 5419 5447 5439 5429 5419 5403 5390 5391 5401 5394 5380
5571 5572 5572 5573 5573 5574 5574 5576 5579 5580 5584 5585 5588 5590 5590 5590 5588 5584 5578 5575 5573 5569 5560 5559 5556 5553 5547 5539 5532 5525 5518 5504 5494 5482 5462 5427 5461 5449 5435 5420 5397 5388 5370 5374 5382 5399 5374
5571 5572 5572 5573 5573 5574 5574 5575 5578 5580 5581 5583 5586 5588 5588 5587 5581 5574 5570 5569 5565 5561 5549 5554 5546 5546 5539 5532 5524 5521 5511 5498 5487 5476 5461 5445 5450 5442 5426 5410 5388 5343 5392 5382 5376 5357 5318
5569 5570 5570 5571 5572 5573 5574 5574 5576 5577 5579 5582 5585 5586 5585 5582 5575 5568 5568 5563 5557 5552 5549 5545 5538 5540 5532 5523 5517 5512 5502 5490 5475 5467 5441 5458 5440 5430 5413 5417 5393 5375 5382 5371 5364 5341 5310
5566 5567 5568 5569 5570 5571 5571 5571 5572 5575 5577 5579 5581 5581 5578 5574 5569 5565 5560 5554 5548 5553 5547 5545 5534 5526 5520 5513 5509 5502 5493 5478 5466 5455 5444 5436 5433 5424 5416 5413 5396 5377 5341 5332 5309 5309 5270
5561 5563 5565 5566 5566 5567 5567 5568 5569 5570 5572 5574 5576 5576 5572 5569 5563 5557 5551 5542 5548 5541 5552 5542 5526 5514 5501 5500 5499 5490 5480 5448 5435 5424 5426 5429 5425 5422 5414 5394 5383 5341 5300 5275 5282 5255 5306
5557 5558 5559 5559 5561 5562 5562 5563 5563 5564 5565 5567 5569 5568 5564 5560 5555 5550 5540 5537 5539 5565 5546 5518 5512 5501 5493 5493 5487 5482 5458 5430 5429 5396 5360 5386 5411 5406 5396 5369 5346 5299 5290 5258 5257 5249 5311
5553 5553 5554 5554 5554 5555 5556 5556 5556 5557 5558 5560 5560 5556 5553 5549 5544 5539 5529 5514 5549 5541 5527 5515 5498 5496 5494 5484 5467 5461 5450 5422 5415 5396 5388 5348 5393 5405 5380 5361 5350 5301 5288 5287 5250 5246 5268
5549 5549 5549 5548 5548 5548 5548 5548 5548 5549 5551 5551 5546 5543 5543 5541 5534 5525 5517 5546 5539 5525 5506 5503 5507 5488 5462 5471 5454 5423 5440 5421 5423 5401 5369 5368 5349 5394 5378 5362 5334 5315 5305 5262 5228 5226 5251
5543 5543 5544 5543 5542 5541 5541 5540 5539 5539 5541 5542 5535 5533 5535 5530 5523 5513 5507 5509 5522 5516 5506 5497 5485 5466 5464 5447 5444 5430 5435 5433 5423 5400 5378 5339 5336 5371 5370 5344 5311 5300 5282 5228 5238 5243 5219
5537 5537 5537 5537 5536 5535 5534 5533 5531 5530 5529 5529 5520 5520 5524 5518 5508 5494 5490 5502 5516 5505 5494 5485 5476 5467 5449 5441 5429 5422 5426 5426 5416 5393 5376 5359 5329 5332 5344 5311 5298 5281 5289 5255 5257 5222 5211
5533 5532 5531 5530 5528 5527 5526 5525 5522 5520 5519 5513 5499 5506 5510 5507 5495 5493 5501 5503 5499 5490 5482 5473 5465 5461 5449 5434 5420 5425 5425 5430 5411 5393 5367 5361 5330 5312 5336 5310 5307 5288 5261 5249 5224 5212 5243
5528 5527 5526 5524 5523 5520 5518 5516 5513 5509 5507 5504 5489 5490 5495 5488 5489 5494 5479 5493 5492 5483 5475 5468 5464 5450 5430 5420 5425 5415 5410 5416 5402 5398 5394 5374 5334 5338 5367 5351 5288 5274 5274 5264 5275 5250 5247
5521 5522 5520 5519 5519 5517 5513 5510 5507 5501 5496 5492 5486 5490 5493 5478 5481 5475 5475 5482 5477 5471 5460 5454 5449 5449 5433 5412 5415 5407 5413 5398 5397 5393 5385 5356 5356 5333 5353 5352 5315 5312 5323 5280 5275 5295 5264
5517 5517 5516 5516 5515 5514 5510 5505 5501 5495 5488 5486 5482 5481 5470 5463 5474 5473 5471 5473 5475 5477 5452 5448 5446 5449 5428 5422 5431 5418 5406 5393 5395 5369 5374 5350 5357 5330 5318 5329 5321 5314 5337 5321 5303 5287 5285
5511 5511 5512 5511 5509 5507 5505 5501 5495 5488 5481 5481 5482 5479 5472 5490 5470 5463 5484 5478 5475 5469 5466 5470 5455 5438 5426 5433 5437 5432 5415 5400 5389 5369 5353 5341 5339 5313 5336 5256 5278 5301 5330 5326 5295 5241 5271
5503 5503 5504 5504 5504 5503 5502 5499 5494 5486 5477 5473 5474 5466 5458 5485 5478 5481 5484 5476 5473 5463 5472 5465 5446 5432 5440 5428 5407 5399 5393 5388 5375 5371 5362 5342 5329 5315 5308 5260 5294 5328 5269 5270 5287 5266 5235
5494 5495 5495 5496 5496 5496 5496 5495 5492 5487 5477 5470 5466 5456 5447 5471 5472 5471 5468 5463 5462 5461 5460 5453 5454 5442 5415 5402 5392 5388 5372 5365 5372 5373 5357 5349 5331 5322 5311 5268 5299 5335 5276 5265 5265 5289 5257
5481 5482 5484 5486 5486 5487 5487 5488 5485 5482 5477 5468 5463 5455 5444 5446 5469 5458 5455 5452 5453 5450 5447 5446 5431 5422 5404 5392 5389 5379 5389 5373 5361 5349 5337 5337 5331 5322 5281 5286 5276 5294 5248 5219 5239 5277 5249
5468 5470 5472 5473 5474 5474 5474 5475 5475 5472 5471 5463 5461 5453 5438 5430 5452 5442 5438 5442 5432 5432 5432 5415 5407 5395 5390 5386 5378 5376 5373 5363 5356 5330 5317 5317 5312 5318 5321 5308 5296 5271 5242 5217 5253 5270 5221
5452 5455 5456 5458 5460 5462 5463 5462 5461 5460 5457 5451 5458 5451 5437 5422 5447 5439 5442 5434 5425 5417 5421 5400 5388 5381 5374 5369 5369 5368 5363 5351 5339 5330 5320 5322 5312 5304 5304 5292 5295 5256 5230 5251 5246 5209 5198
5435 5437 5440 5442 5442 5443 5445 5447 5447 5447 5444 5438 5447 5443 5439 5427 5439 5439 5442 5444 5433 5430 5414 5395 5403 5388 5382 5369 5361 5355 5352 5332 5332 5335 5305 5325 5336 5311 5310 5316 5259 5254 5238 5223 5215 5211 5203